Regional Weather Roundup
Issued by NWS

Home | Current Version | Previous Version | Graphics & Text | Print | Product List | Glossary On
Versions: 1 2 3 4 5 6 7 8 9 10 11 12 13 14 15 16 17 18 19 20 21 22 23 24 25 26 27 28 29 30 31 32 33 34 35 36 37 38 39 40 41 42 43 44 45 46 47 48 49 50
000
ASUS43 KLOT 280908
RWRIL

ILLINOIS REGIONAL WEATHER ROUNDUP
NATIONAL WEATHER SERVICE CHICAGO/ROMEOVILLE IL
400 AM CDT TUE JUL 28 2015

NOTE: "FAIR" INDICATES FEW OR NO CLOUDS BELOW 12,000 FEET WITH NO
SIGNIFICANT WEATHER AND/OR OBSTRUCTIONS TO VISIBILITY.

* THESE STATIONS ARE NOT UNDER NWS QUALITY CONTROL. THEY ALSO MAY NOT
  REPORT WEATHER SUCH AS PRECIPITATION OR FOG.

ILZ001-002-007-009-015-016-024-281000-
NORTHWEST ILLINOIS

CITY           SKY/WX    TMP DP  RH WIND       PRES   REMARKS
MOLINE         CLEAR     71  68  90 E7        29.94F
STERLING*      CLEAR     66  64  94 E3        29.96S
SAVANNA*       CLEAR     69  64  84 CALM      29.96F
$$

ILZ003-004-008-010-011-017-018-281000-
NORTH CENTRAL ILLINOIS

CITY           SKY/WX    TMP DP  RH WIND       PRES   REMARKS
ROCKFORD       PTCLDY    69  63  81 E6        30.00F
FREEPORT*      CLEAR     63  61  95 E5        30.00F
ROCHELLE*      CLEAR     66  64  92 E3        29.99F
DE KALB*       CLEAR     65  62  92 E5        30.01R
PERU*          CLEAR     69  65  88 E6        29.98F
$$

ILZ005-006-012>014-019>023-281000-
NORTHEAST ILLINOIS

CITY           SKY/WX    TMP DP  RH WIND       PRES   REMARKS
CHICAGO-OHARE  PTCLDY    71  66  84 NE5       29.99S
CHICAGO-MIDWAY CLEAR     75  67  76 E6        29.98F
AURORA         CLEAR     69  63  81 CALM      29.99S
LANSING*       CLEAR     70  61  73 CALM      29.99S
JOLIET*        CLEAR     72  66  82 CALM      29.98S
WAUKEGAN       CLEAR     64  62  93 CALM      30.00S
DUPAGE AIRPORT CLEAR     69  64  84 E3        29.99S
KANKAKEE*      CLEAR     69  66  91 CALM      29.98F
WHEELING       CLEAR     68  65  90 CALM      30.00F
MORRIS*        MOCLDY    69  66  90 CALM      29.95F
ROMEOVILLE*    CLEAR     70  65  84 E3        29.99S
NORTHERLY ISL    N/A     72  68  87 NE3         N/A
$$

LMZ740>746-281000-
SOUTHERN LAKE MICHIGAN

STATION/POSITION SKY/WX   TEMP    WIND        PRES    VSBY  WAVE
                          AIR SEA DIR/SP/G                  HT/PER
                          (F)     (DEG/KT/KT) (MB)    (MI)  (FT/S)
HARRISON CRIB              74     140/  3/  5   N/A
BURNHAM HARBOR             72      50/  4       N/A
CALUMET HARBOR             73      60/  3/  4   N/A
BURNS HARBOR               77     130/  9/ 12 1016.3S
MICHIGAN CITY              73     110/  6/  8   N/A
MICHIGAN CITY 6N           74 74  150/  6/  8   N/A           1
ST. JOSEPH                 71 73  170/  8/  8   N/A           1
$$

ILZ025>027-034>036-040-047-049-050-058-095>099-281000-
WEST-CENTRAL ILLINOIS

CITY           SKY/WX    TMP DP  RH WIND       PRES   REMARKS
QUINCY         PTCLDY    71  69  93 SE3       29.93F
GALESBURG*     CLEAR     72  70  95 E3        29.95F
MACOMB*          N/A     71  71 100 E3        29.97S FOG
JACKSONVILLE*  MOCLDY    73  71  94 CALM      29.95R
PITTSFIELD*    PTCLDY    72  70  93 CALM      29.94F
$$

ILZ028>032-037-038-041>044-048-051>054-059>061-281000-
CENTRAL ILLINOIS

CITY           SKY/WX    TMP DP  RH WIND       PRES   REMARKS
PONTIAC        CLEAR     70  68  94 E5        29.98S
BLOOMINGTON    PTCLDY    71  71 100 E8        29.97F
DECATUR        MOCLDY    73  70  90 N3        29.95S
PEORIA         PTCLDY    76  71  85 E5        29.95F
LACON*         CLEAR     70  66  88 CALM      29.95F
LINCOLN*       PTCLDY    73  71  94 CALM      29.94F FOG
SPRINGFIELD    MOCLDY    76  73  91 CALM      29.94F
TAYLORVILLE    MOCLDY    72  72 100 NE3       29.94F FOG
$$

ILZ033-039-045-046-055>057-062-063-281000-
EAST-CENTRAL ILLINOIS

CITY           SKY/WX    TMP DP  RH WIND       PRES   REMARKS
CHAMPAIGN      PTCLDY    72  70  93 E5        29.95F FOG
DANVILLE*      PTCLDY    70  69  98 E3        29.93F FOG
RANTOUL*       PTCLDY    73  71  93 E3        29.96S
MATTOON        MOCLDY    74  71  91 CALM      29.93F
PARIS*         MOCLDY    73  72  99 E3        29.96S FOG
$$

ILZ079-100>102-281000-
SOUTHWEST ILLINOIS

CITY           SKY/WX    TMP DP  RH WIND       PRES   REMARKS
ALTON          MOCLDY    71  70  98 CALM      29.94R
BELLEVILLE     CLOUDY    73  73 100 CALM      29.92S
CAHOKIA*       MOCLDY    75  72  90 CALM      29.93S
SPARTA*        PTCLDY    73  73  98 CALM      29.95S FOG
$$

ILZ064>066-069>071-074>076-080>082-084>086-088>090-092>094-281000-
SOUTH-CENTRAL ILLINOIS

CITY           SKY/WX    TMP DP  RH WIND       PRES   REMARKS
CARBONDALE     MOCLDY    75  74  96 SE3       29.94S
CAIRO*         PTCLDY    75  75  99 CALM      29.94R
EFFINGHAM*     PTCLDY    74  71  90 CALM      29.95F FOG
MARION         MOCLDY    77  75  94 CALM      29.95S
MT. VERNON     MOCLDY    73  70  88 CALM      29.94S
CENTRALIA*     MOCLDY    73  70  92 CALM      29.94S
SALEM*         MOCLDY    74  72  91 CALM      29.94S FOG
METROPOLIS*    MOCLDY    76  76 100 CALM      29.96R FOG
$$

ILZ067-068-072-073-078-083-087-091-281000-
SOUTHEAST ILLINOIS

CITY           SKY/WX    TMP DP  RH WIND       PRES   REMARKS
LAWRENCEVILLE  PTCLDY    73  72  96 NE3       29.95S
FLORA*         PTCLDY    73  71  95 CALM      29.94R
FAIRFIELD*     MOCLDY    74  74  99 CALM      29.92S FOG
HARRISBURG*    MOCLDY    73  73 100 CALM      29.96R
ROBINSON*      MOCLDY    71  70  98 CALM      29.95S FOG
CARMI*         MOCLDY    72  67  86 SE3       29.93S HAZE
$$

ABBREVIATIONS USED IN REMARKS
   TC - TEMPERATURE IN CELSIUS
  WCI - WIND CHILL INDEX
   HX - HEAT INDEX
  VSB - VISIBILITY
$$




USA.gov is the U.S. government's official web portal to all federal, state and local government web resources and services.